www.pogodaiklimat.ru

Погода и климат >> Архив погоды >> Швеция >> Скиллинге


ПОГОДА в Скиллинге

  • Прогноз погоды в Скиллинге
  • Монитор погоды в Скиллинге

АРХИВ ПОГОДЫ в Скиллинге

Время (UTC), дата Ветер
(напр.,м/с)
 
Видим.   Явления Облачность Т
(С)
Тd
(С)
f
(%)
Тe
(С)
Тes
(С)
Комфортность P
(гПа)
Po
(гПа)
Тmin
(С)
Tmax
(С)
R
(мм)
R24
(мм)
S
(см)
19 11.09 ЮЗ 8
{13}
19 км слаб. дождь 1/1 400 м
[]
+15.8 +11.9 78 +14 +14 1017.1 1016.5 0.4
20 11.09 ЮЗ 7
{11}
17 км слаб. дождь ?/? +15.3 +12.5 83 +13 +13 1016.9 1016.3 0.9
21 11.09 ЮЗ 10
{15}
15 км в посл. час дождь {ливн. осадки} 8/8 700 м
[]
+15.7 +11.8 78 +14 +14 1016.6 1016.0
22 11.09 ЮЗ 8
{13}
3100 м слаб. дождь ?/? +15.0 +13.5 91 +13 +13 1016.7 1016.1 0.2
23 11.09 ЮЗ 8
{13}
2700 м слаб. дождь ?/? +14.8 +14.3 97 +13 +13 1016.4 1015.8 2
00 12.09 ЮЗ 6
{12}
25 км в посл. час дождь {ливн. осадки} 10/10 300 м
[]
+15.2 +14.1 93 +14 +14 1016.6 1016.0 1
01 12.09 З 4
{9}
30 км 10/9 800 м
[]
+15.2 +14.2 94 +14 +14 1017.0 1016.4
02 12.09 З 3
{7}
28 км 10/1 1500 м
[]
+14.6 +13.5 93 +14 +14 1017.6 1017.0
03 12.09 З 3
{6}
26 км 1/0
[]
+14.0 +12.8 92 +13 +13 1017.9 1017.2
04 12.09 З 3
{5}
19 км 5/5
[]
+13.4 +12.6 95 +12 +12 1018.7 1018.1
05 12.09 З 3
{5}
15 км 1/1 420 м
[]
+13.0 +12.2 95 +12 +12 1019.5 1018.8
06 12.09 З 3
{5}
14 км ясно +14.4 +13.1 92 +13 +14 1020.4 1019.8 +12.8 +16.5
07 12.09 З 3
{6}
17 км ясно +15.7 +13.5 87 +15 +17 1021.1 1020.4
08 12.09 З 4
{8}
20 км ясно +16.9 +12.9 77 +16 +19 1021.5 1020.9
09 12.09 З 5
{8}
21 км ясно +18.1 +13.0 72 +18 +21 1021.8 1021.2
10 12.09 ЮЗ 6
{10}
28 км 4/4 700 м
[]
+18.7 +13.1 70 +19 +21 1022.2 1021.6
11 12.09 З 7
{11}
23 км 3/3 720 м
[]
+17.3 +12.8 75 +16 +18 1022.6 1022.0
12 12.09 ЮЗ 7
{11}
24 км в посл. час дождь {ливн. осадки} 6/6 750 м
[]
+17.3 +12.9 75 +16 +18 1022.9 1022.3 0.0
13 12.09 ЮЗ 8
{13}
28 км 6/1 660 м
[]
+18.5 +13.4 72 +18 +19 1022.8 1022.2
14 12.09 ЮЗ 8
{13}
29 км 1/0
[]
+18.5 +13.4 72 +18 +19 1022.5 1021.9
15 12.09 ЮЗ 8
{13}
26 км 1/1 700 м
[]
+18.3 +13.8 75 +18 +18 1022.6 1022.0
16 12.09 ЮЗ 7
{12}
25 км 4/4 1500 м
[]
+17.5 +14.0 80 +17 +17 1022.5 1021.9
17 12.09 З 7
{12}
26 км 1/1 2000 м
[]
+17.2 +13.4 78 +16 +16 1022.5 1021.8
18 12.09 З 5
{11}
27 км ясно +16.5 +13.1 80 +16 +16 1022.8 1022.2 +19.2
19 12.09 З 4
{7}
27 км ясно +15.8 +13.0 83 +15 +15 1022.7 1022.1
20 12.09 З 4
{8}
21 км ясно +15.6 +13.2 86 +15 +15 1022.9 1022.2
21 12.09 З 4
{8}
23 км ясно +15.7 +13.0 84 +15 +15 1022.6 1021.9
22 12.09 ЮЗ 5
{8}
25 км 3/3
[]
+16.0 +12.8 81 +15 +15 1021.9 1021.3
23 12.09 З 4
{9}
23 км 3/0
[]
+15.5 +12.8 84 +15 +15 1021.8 1021.2
00 13.09 ЮЗ 5
{8}
21 км 6/6 1380 м
[]
+15.8 +12.8 82 +15 +15 1021.2 1020.5
01 13.09 ЮЗ 5
{8}
21 км 8/8 1500 м
[]
+16.2 +12.9 81 +15 +15 1020.8 1020.2
02 13.09 З 5
{8}
22 км 10/10 1470 м
[]
+16.2 +13.1 82 +15 +15 1020.2 1019.6
03 13.09 З 5
{9}
18 км в посл. час дождь {ливн. осадки} 10/10 660 м
[]
+16.0 +13.7 86 +15 +15 1019.6 1018.9
04 13.09 ЮЗ 6
{8}
15 км {ливн. осадки, дождь} 9/5 840 м
[]
+15.6 +13.5 87 +14 +14 1018.6 1017.9
05 13.09 ЮЗ 7
{12}
4700 м слаб. ливневой дождь ?/? +15.2 +14.7 97 +13 +13 1018.0 1017.4 2
06 13.09 З 7
{14}
5000 м слаб. ливневой дождь 10/10 210 м
[]
+16.3 +15.6 96 +15 +15 1017.9 1017.3 +15.0 0.3
07 13.09 СЗ 3
{10}
50 км в посл. час дождь {ливн. осадки, метель} 8/3 960 м
[]
+15.2 +13.6 90 +14 +15 1019.6 1018.9 0.0
08 13.09 СЗ 4
{8}
45 км {ливн. осадки, метель} ясно +15.3 +12.0 81 +14 +17 1020.8 1020.2
09 13.09 З 5
{9}
35 км {ливн. осадки, метель} ясно +17.2 +11.1 67 +17 +20 1021.5 1020.9
10 13.09 З 6
{11}
30 км {ливн. осадки, метель} 1/0
[]
+17.3 +9.6 61 +17 +19 1022.3 1021.7
11 13.09 З 7
{12}
30 км {ливн. осадки, метель} ясно +17.7 +8.8 56 +17 +19 1023.1 1022.4
12 13.09 З 6
{12}
35 км {ливн. осадки, метель} ясно +17.8 +7.7 52 +17 +20 1024.0 1023.3
13 13.09 СЗ 5
{11}
35 км 1/0
[]
+18.3 +7.9 51 +18 +21 1024.7 1024.0
14 13.09 З 6
{11}
35 км ясно +17.7 +7.6 52 +17 +19 1025.1 1024.5
15 13.09 З 6
{12}
30 км ясно +17.0 +6.9 51 +16 +17 1025.8 1025.2
16 13.09 З 5
{12}
30 км ясно +16.0 +7.5 57 +15 +15 1026.2 1025.6
17 13.09 З 4
{11}
35 км ясно +14.7 +7.5 62 +14 +14 1026.7 1026.1
18 13.09 З 4
{9}
35 км ясно +13.7 +7.6 67 +12 +12 1027.5 1026.8 +13.6 +18.6
19 13.09 З 4
{8}
40 км ясно +12.9 +7.7 71 +11 +11 1027.9 1027.3
20 13.09 З 3
{6}
40 км ясно +12.3 +7.7 73 +11 +11 1028.4 1027.8
21 13.09 З 2
{4}
30 км ясно +10.8 +7.8 82 +9 +9 1028.9 1028.2
22 13.09 З 3
{4}
30 км ясно +11.0 +8.0 82 +9 +9 1028.9 1028.3
23 13.09 З 3
{6}
25 км ясно +11.1 +7.6 79 +9 +9 1029.4 1028.8
00 14.09 З 2
{5}
20 км ясно +9.3 +7.4 88 +8 +8 1029.6 1028.9
01 14.09 ЮЗ 2
{4}
19 км ясно +9.3 +7.6 89 +8 +8 1029.6 1028.9
02 14.09 З 2
{4}
17 км ясно +9.3 +7.6 89 +8 +8 1029.8 1029.2
03 14.09 З 2
{4}
17 км 1/0
[]
+8.9 +7.6 92 +7 +7 1029.7 1029.1
04 14.09 З 2
{4}
16 км ясно +8.7 +7.6 93 +7 +7 1030.1 1029.4
05 14.09 З 3
{4}
17 км ясно +9.3 +8.2 93 +7 +7 1030.0 1029.3
06 14.09 З 3
{5}
19 км ясно +11.2 +9.3 88 +9 +10 1030.2 1029.6 +8.6 +13.7
07 14.09 З 3
{5}
17 км ясно +13.3 +10.1 81 +12 +14 1030.4 1029.8
08 14.09 З 4
{8}
23 км ясно +14.9 +9.9 72 +14 +16 1030.5 1029.9
09 14.09 З 4
{9}
23 км 1/1 870 м
[]
+16.4 +10.3 67 +16 +19 1030.6 1030.0
10 14.09 З 4
{9}
25 км 3/3 1000 м
[]
+16.1 +8.9 62 +15 +19 1030.2 1029.5
11 14.09 З 5
{10}
28 км ясно +16.6 +7.8 56 +16 +20 1029.9 1029.2
12 14.09 З 4
{9}
29 км ясно +16.6 +7.5 55 +16 +21 1029.9 1029.3
13 14.09 З 5
{9}
30 км 1/1 1410 м
[]
+17.3 +7.1 51 +17 +20 1029.4 1028.8
14 14.09 СЗ 3
{9}
30 км 4/1 1470 м
[]
+17.6 +8.7 56 +18 +20 1028.7 1028.1
15 14.09 З 4
{8}
30 км 1/0
[]
+17.1 +7.5 53 +17 +18 1028.5 1027.9
16 14.09 ЮЗ 4
{8}
40 км 1/0
[]
+16.1 +8.6 61 +15 +16 1027.7 1027.0
17 14.09 З 4
{8}
35 км ясно +14.3 +8.8 69 +13 +13 1027.4 1026.8
18 14.09 ЮЗ 4
{8}
30 км ясно +13.5 +9.3 76 +12 +12 1026.9 1026.3 +18.2
19 14.09 ЮЗ 4
{8}
40 км ясно +13.2 +8.9 75 +12 +12 1026.1 1025.4
20 14.09 ЮЗ 3
{7}
40 км 3/3
[]
+12.9 +9.4 79 +12 +12 1025.8 1025.2
21 14.09 ЮЗ 4
{6}
35 км ясно +13.0 +9.4 79 +11 +11 1024.4 1023.8
22 14.09 ЮЗ 5
{7}
50 км 4/4
[]
+13.5 +9.0 74 +12 +12 1023.7 1023.1
23 14.09 ЮЗ 6
{10}
45 км 1/0
[]
+14.0 +9.5 74 +12 +12 1022.3 1021.6
00 15.09 ЮЗ 6
{11}
40 км ясно +14.2 +10.0 76 +12 +12 1020.9 1020.3
01 15.09 ЮЗ 8
{15}
45 км 3/3
[]
+14.8 +9.5 71 +13 +13 1019.9 1019.3
02 15.09 ЮЗ 9
{16}
40 км 3/0
[]
+15.0 +9.7 71 +13 +13 1018.1 1017.5
03 15.09 ЮЗ 9
{14}
35 км ясно +15.1 +9.8 71 +13 +13 1016.8 1016.1
04 15.09 ЮЗ 8
{14}
30 км 1/0
[]
+14.9 +9.8 72 +13 +13 1015.7 1015.0
05 15.09 ЮЗ 9
{15}
35 км ясно +14.9 +9.6 71 +13 +13 1013.8 1013.1
06 15.09 ЮЗ 10
{15}
35 км ясно +15.2 +9.7 70 +13 +13 1013.2 1012.6 +12.7 +15.3
07 15.09 ЮЗ 10
{16}
40 км ясно +15.4 +9.5 68 +13 +13 1012.4 1011.7
08 15.09 ЮЗ 11
{17}
30 км 6/5 1050 м
[]
+15.7 +10.2 70 +13 +13 1011.6 1011.0
09 15.09 З 9
{18}
25 км 10/10 720 м
[]
+15.6 +11.5 77 +14 +14 1010.9 1010.3
10 15.09 ЮЗ 9
{17}
7000 м 10/10 600 м
[]
+15.2 +12.9 86 +13 +13 1010.6 1010.0
11 15.09 ЮЗ 8
{14}
18 км 9/1 540 м
[]
+15.9 +13.6 86 +14 +15 1010.5 1009.8
12 15.09 З 5
{12}
45 км {дымка} 10/10 540 м
[]
+16.8 +10.5 66 +16 +18 1010.4 1009.8
13 15.09 З 8
{13}
30 км 10/1 1140 м
[]
+17.2 +9.5 61 +16 +17 1010.5 1009.9
14 15.09 З 6
{13}
30 км 1/0
[]
+16.1 +8.2 59 +15 +16 1010.8 1010.2
15 15.09 З 6
{12}
22 км ясно +15.5 +6.7 56 +14 +15 1011.1 1010.5
16 15.09 З 7
{13}
20 км ясно +15.2 +7.1 58 +14 +14 1011.1 1010.4
17 15.09 З 6
{11}
20 км ясно +14.7 +7.2 61 +13 +13 1010.7 1010.1
18 15.09 З 6
{15}
15 км ясно +13.3 +5.6 60 +11 +11 1011.1 1010.4 +13.3 +17.7
19 15.09 З 6
{11}
15 км 1/0
[]
+12.5 +6.2 65 +10 +10 1010.6 1010.0
20 15.09 З 6
{12}
14 км ясно +12.5 +6.8 68 +10 +10 1010.7 1010.1
21 15.09 З 5
{11}
15 км ясно +12.0 +6.7 70 +10 +10 1011.0 1010.4
22 15.09 З 6
{12}
17 км 1/1 1380 м
[]
+12.4 +6.5 67 +10 +10 1011.1 1010.5
23 15.09 З 7
{11}
15 км 1/1 1300 м
[]
+12.4 +6.6 68 +10 +10 1011.1 1010.4
00 16.09 З 6
{11}
18 км 1/1 1410 м
[]
+12.2 +6.8 70 +10 +10 1011.4 1010.8
01 16.09 З 7
{11}
19 км 5/4 1320 м
[]
+12.7 +6.7 67 +10 +10 1011.2 1010.6
02 16.09 З 7
{11}
22 км ясно +12.5 +6.7 68 +10 +10 1011.2 1010.6
03 16.09 З 6
{12}
20 км 5/5 1410 м
[]
+12.4 +7.0 70 +10 +10 1011.2 1010.6
04 16.09 З 5
{11}
21 км ясно +11.8 +6.8 71 +9 +9 1011.3 1010.6
05 16.09 З 5
{9}
19 км 1/1 1050 м
[]
+12.1 +7.0 71 +10 +10 1011.3 1010.7
06 16.09 З 6
{10}
18 км ясно +12.4 +7.0 70 +10 +10 1011.1 1010.5 +11.7
07 16.09 З 7
{10}
18 км ясно +13.3 +6.6 64 +11 +11 1011.3 1010.7
08 16.09 З 7
{13}
19 км ясно +14.3 +6.9 61 +12 +13 1011.5 1010.9
09 16.09 З 7
{13}
23 км ясно +14.9 +6.1 56 +13 +15 1011.3 1010.7
10 16.09 З 7
{13}
30 км 1/0
[]
+15.7 +6.4 54 +14 +16 1011.5 1010.9
11 16.09 З 7
{11}
21 км 1/1 1320 м
[]
+14.8 +5.5 54 +13 +15 1011.7 1011.0
12 16.09 З 7
{12}
18 км 1/1 1320 м
[]
+16.1 +5.7 50 +15 +17 1011.5 1010.9
13 16.09 З 7
{13}
26 км 10/1 1320 м
[]
+16.2 +6.2 51 +15 +16 1011.5 1010.9
14 16.09 З 6
{11}
25 км в посл. час дождь {ливн. осадки, метель} 1/0
[]
+15.3 +6.6 56 +14 +15 1011.6 1011.0 0.0
15 16.09 З 5
{10}
23 км {ливн. осадки, метель} ясно +15.0 +5.3 52 +14 +15 1011.8 1011.1
16 16.09 З 4
{9}
26 км {ливн. осадки, метель} ясно +14.6 +5.1 53 +14 +14 1011.8 1011.2
17 16.09 З 3
{8}
30 км {ливн. осадки, метель} 1/0
[]
+12.9 +4.3 56 +12 +12 1012.2 1011.5
18 16.09 З 2
{5}
30 км {ливн. осадки, метель} ясно +10.3 +4.8 69 +9 +9 1012.1 1011.5 +10.3 +17.1
19 16.09 З 2
{4}
29 км ясно +9.3 +5.5 77 +8 +8 1012.1 1011.4
20 16.09 З 3
{5}
35 км ясно +10.4 +6.2 75 +8 +8 1011.9 1011.3
21 16.09 З 2
{4}
40 км 3/0
[]
+9.3 +6.6 83 +8 +8 1011.6 1011.0
22 16.09 З 3
{4}
45 км ясно +8.9 +6.6 85 +6 +6 1011.3 1010.7
23 16.09 З 2
{6}
45 км ясно +9.1 +7.0 87 +7 +7 1010.9 1010.3
00 17.09 З 4
{6}
35 км ясно +10.0 +7.8 86 +7 +7 1010.4 1009.7
01 17.09 З 3
{7}
28 км 1/0
[]
+9.6 +7.6 87 +7 +7 1009.7 1009.1
02 17.09 З 4
{7}
27 км 1/0
[]
+9.7 +7.7 87 +7 +7 1009.3 1008.7
03 17.09 З 5
{9}
29 км 3/0
[]
+10.1 +8.0 87 +7 +7 1008.4 1007.7
04 17.09 ЮЗ 5
{8}
30 км ясно +9.9 +7.8 87 +7 +7 1007.8 1007.1
05 17.09 З 3
{7}
30 км ясно +9.8 +7.7 87 +8 +8 1007.0 1006.3
06 17.09 З 5
{9}
28 км ясно +11.2 +8.2 82 +8 +9 1006.3 1005.6 +8.6 +11.2
07 17.09 З 6
{11}
35 км ясно +11.7 +5.9 68 +9 +10 1005.9 1005.3
08 17.09 З 6
{11}
30 км ясно +12.8 +6.0 63 +11 +12 1005.3 1004.7
09 17.09 З 8
{13}
25 км 1/1 1410 м
[]
+13.1 +3.5 52 +11 +11 1004.7 1004.1
10 17.09 З 8
{13}
26 км 1/0
[]
+13.3 +5.2 58 +11 +12 1004.4 1003.8
11 17.09 З 7
{15}
40 км ясно +13.4 +5.1 57 +11 +13 1004.1 1003.4
12 17.09 З 8
{14}
35 км 1/0
[]
+13.1 +3.6 52 +11 +12 1003.6 1002.9
13 17.09 З 6
{13}
45 км ясно +12.6 +3.5 54 +10 +13 1003.2 1002.6
14 17.09 СЗ 6
{14}
17 км слаб. дождь 3/1 540 м
[]
+9.4 +2.7 63 +6 +7 1004.0 1003.4
15 17.09 З 3
{11}
50 км слаб. ливневой дождь 1/0
[]
+8.7 +5.0 78 +6 +8 1003.8 1003.2 0.6
16 17.09 З 4
{7}
50 км в посл. час дождь {ливн. осадки} 1/0
[]
+9.2 +5.1 76 +6 +7 1003.7 1003.0 0.0
17 17.09 З 5
{10}
50 км {ливн. осадки, дождь} ясно +10.0 +4.0 66 +7 +7 1004.0 1003.3
18 17.09 СЗ 3
{9}
30 км слаб. ливневой дождь 1/1 750 м
[]
+9.0 +4.3 72 +7 +7 1005.4 1004.8 +7.6 +13.9 0.0
19 17.09 СЗ 3
{6}
50 км в посл. час дождь {ливн. осадки, метель} ясно +7.9 +3.7 75 +5 +5 1006.2 1005.6 0.0
20 17.09 СЗ 4
{8}
50 км слаб. ливневой дождь {метель} 5/3 1300 м
[]
+8.3 +4.3 76 +5 +5 1007.5 1006.9 0.0
21 17.09 СЗ 3
{7}
50 км в посл. час дождь {ливн. осадки, метель} ясно +7.6 +4.4 80 +5 +5 1008.7 1008.1 0.0
22 17.09 СЗ 3
{6}
50 км {ливн. осадки, метель} ясно +7.1 +4.5 84 +4 +4 1009.6 1009.0
23 17.09 З 3
{6}
50 км {ливн. осадки, метель} ясно +6.5 +4.2 85 +3 +3 1010.7 1010.1
00 18.09 З 3
{6}
50 км {ливн. осадки, метель} ясно +6.4 +3.8 83 +3 +3 1011.5 1010.8
01 18.09 З 3
{6}
50 км ясно +6.0 +3.4 83 +3 +3 1011.8 1011.2
02 18.09 З 2
{5}
50 км ясно +5.7 +2.9 82 +3 +3 1012.4 1011.7
03 18.09 З 3
{4}
50 км ясно +5.8 +3.5 85 +3 +3 1012.6 1012.0
04 18.09 З 3
{6}
50 км 3/1 1500 м
[]
+6.4 +4.4 87 +3 +3 1013.0 1012.4
05 18.09 З 3
{5}
50 км ясно +7.1 +5.2 88 +4 +4 1013.5 1012.8
06 18.09 З 2
{6}
40 км ясно +9.7 +5.7 76 +8 +9 1014.2 1013.6 +5.4 +9.7
07 18.09 З 2
{5}
40 км ясно +11.6 +6.1 69 +11 +12 1014.6 1014.0
08 18.09 З 3
{5}
40 км 1/0
[]
+13.1 +6.0 62 +12 +15 1015.1 1014.5
09 18.09 З 4
{7}
40 км 1/0
[]
+14.2 +6.4 59 +13 +16 1015.4 1014.8
10 18.09 СЗ 3
{7}
35 км 3/0
[]
+15.5 +5.7 52 +15 +20 1015.5 1014.9
11 18.09 СЗ 4
{9}
40 км ясно +15.9 +5.1 49 +15 +20 1015.7 1015.1
12 18.09 З 5
{9}
50 км ясно +16.1 +4.2 45 +15 +19 1015.9 1015.2
13 18.09 З 4
{9}
30 км ясно +16.4 +6.9 53 +16 +20 1016.1 1015.5
14 18.09 З 4
{9}
45 км 1/1
[]
+15.8 +7.2 57 +15 +17 1016.5 1015.9
15 18.09 З 4
{8}
50 км ясно +14.2 +6.2 59 +13 +14 1017.1 1016.4
16 18.09 СЗ 4
{10}
50 км ясно +13.0 +6.2 63 +11 +12 1017.2 1016.5
17 18.09 З 3
{7}
50 км 3/3
[]
+11.3 +5.9 69 +10 +10 1017.7 1017.0
18 18.09 СЗ 3
{6}
50 км ясно +10.2 +5.7 74 +8 +8 1018.2 1017.6 +16.7
19 18.09 З 2
{4}
50 км ясно +8.9 +5.5 79 +7 +7 1018.7 1018.1

 

Местоположение метеостанции Скиллинге (Швеция): широта 55.48 долгота 14.32 высота над уровнем моря 5 м.

В архиве по умолчанию представлена погода в Скиллинге за последнюю неделю. Архивные данные за месяц целиком и за предыдущие месяцы, начиная с января 2011 года, Вы можете получить, выбрав интересующий диапазон дат из раскрывающегося списка и нажав кнопку "Ввод!".


*Определитесь, кто Вы:
робот инопланетянин человек

Внимание! Время в таблицах - всемирное. Для получения местного времени необходимо прибавить поправку, которая равна 1 ч.

Смотрите также архив погоды в соседних городах и на ближайших метеорологических станциях:

Погода на Маяке Hammer Odde (Дания) (35 км)
Погода в Рынге (Швеция) (38 км)
Погода в Рённе (Дания) (53 км)
Погода в Хёрбю (Швеция) (60 км)
Погода в Мальмё аэропорту (Швеция) (60 км)
Погода в Нексо (Дания) (68 км)
Погода в Хано (Швеция) (69 км)
Погода в Мальмё (Швеция) (79 км)
Погода в Хестведе (Швеция) (92 км)
Погода в Фальстербу АМС (Швеция) (95 км)

Пояснения к столбцам:

Ветер - указаны скорость ветра в м/с - средняя за 10 мин, порывы в срок и между сроками (в фигурных скобках) и направление, откуда дует ветер: С - северный, СВ - северо-восточный, В - восточный, ЮВ - юго-восточный, Ю - южный, ЮЗ - юго-западный, З - западный, СЗ - северо-западный.
Видимость - горизонтальная дальность видимости в метрах или километрах. При видимости от 1 до 10 км при отсутствии осадков обычно наблюдается дымка, при ухудшении видимости до 1 км и менее - туман. В сухую погоду видимость может ухудшаться дымом, пылью или мглою.
Явления - указаны атмосферные явления, наблюдавшиеся в срок или в последний час перед сроком; фигурными скобками обозначены явления, наблюдавшиеся между сроками (за 1-3 часа до срока); квадратными скобками обозначены град или гололедные отложения с указанием их диаметра в мм.
Облачность - указаны через наклонную черту общая и нижняя облачность в баллах и высота нижней границы облаков в метрах; квадратными скобками обозначены формы облаков: Ci - перистые, Cs - перисто-слоистые, Cc - перисто-кучевые, Ac - высококучевые, As - высокослоистые, Sc - слоисто-кучевые, Ns - слоисто-дождевые, Cu - кучевые, Cb - кучево-дождевые. Подробнее классификацию облаков см. в Атласе облаков (PDF).
T - Температура воздуха - температура, измеренная на высоте 2 м над землей.
Td - Температура точки росы - температура, при понижении до которой содержащийся в воздухе водяной пар достигнет насыщения.
f - Относительная влажность воздуха - влажноcть воздуха, измеренная на высоте 2 м над землей.
Te - Эффективная температура - температура, которую ощущает одетый по сезону человек в тени. Характеристика душности погоды. При расчете учитывается влияние влажности воздуха и скорости ветра на теплоощущения человека.
Tes - Эффективная температура на солнце - температура, которую ощущает человек, с поправкой на солнечный нагрев. Характеристика знойности погоды. Зависит от высоты солнца над горизонтом, облачности и скорости ветра. Ночью, в пасмурную погоду, а также при ветре 12 м/с и более поправка равна нулю.
P - Атмосферное давление - приведенное к уровню моря атмосферное давление.
Po - Атмосферное давление - измеренное на уровне метеостанции атмосферное давление.
Tmin - Минимальная температура - минимум температуры воздуха на высоте 2 м над землей.
Tmax - Максимальная температура - максимум температуры воздуха на высоте 2 м над землей.
R - Количество осадков - Количество выпавших осадков за период времени, мм. При наведении курсора мыши на число - период времени, за который выпало указанное количество осадков.
R24 - Количество осадков - Количество выпавших осадков за 24 часа, мм.
S - Снежный покров - Высота снежного покрова, см. При наведении курсора мыши на число - состояние снежного покрова и степень покрытия местности в баллах.